User: anonymous   Login
Location: Unspecified
(0.0000°N, 0.0000°E)
Time: 03:53:28
(UTC+02:00)
Language:

ASC 2 Rocket - Orbit

View from above orbital plane
View from above orbital plane
View from above satellite
View from above satellite

Ground track
Ground track

The orbit data is extracted from the following two-line orbital elements,

1 21228U 91028B   15114.14990552  .00000633  00000-0  21076-3 0  9993
2 21228 024.0015 056.1165 1144271 283.1284 202.3027 12.53059919 99223
Epoch (UTC): 24 April 2015 03:35:51
Eccentricity: 0.1144271
inclination: 24.0015°
perigee height: 556 km
apogee height: 2347 km
right ascension of ascending node: 56.1165°
argument of perigee: 283.1284°
revolutions per day: 12.53059919
mean anomaly at epoch: 202.3027°
orbit number at epoch: 9922

The dashed part of the orbit path shows where the satellite is in the earth's shadow,  

DLR